Airfield :
LOGIN :

Register | Disclaimer

   EN    FR    IT 

 










Legend :    VFR   Marginal VFR   IFR   Intensive IFR   Very Intensive IFR
Visi :
Ceiling :
>= 8 km
>= 3000ft
5 to 8 km
1000 to 3000 ft
1500m to 5 km
500 to 1000 ft
800 to 1500m
200 to 500 ft
< 800m
< 200 ft
Symbols :   Thunderstorms  Fog  Heavy snow  Heavy precipitations  Wind > 20 kt
SIGMETs :     Misc.  Thunderstorms  Icing  Turbulence  Mountain Waves  Volcanic Ashes







- Airport Elevation : 9 ft
- IATA code : MIR


DTMB - Habib Bourguliba Int. Monastir

CURRENT METAR :
  • 150030Z 18006KT 6000 NSC 08/07 Q1018

EXPIRED METARs :
  • 150000Z 15003KT 6000 NSC 09/08 Q1018
  • 142330Z 17003KT 6000 NSC 09/08 Q1018
  • 142300Z 14004KT 6000 NSC 10/09 Q1018
  • 142230Z 17004KT 6000 NSC 11/09 Q1019
  • 142200Z 15003KT 6000 NSC 11/09 Q1019

TAF TAF DTMB
Valid from the 15 at 00:00 until the 16 at 00:00 UTC


142300Z 1500/1524 17003KT 8000 NSC
BECMG 1507/1509 23012KT
No reported NOTAMs for that airfield.



MET'MAP, your aeronautical weather chart ! - Copyright ORBIFLY December 2007 - Disclaimer

ORBIFLY MET'MAP TEAM :

Programming & Development : Alexandra Zaïnal
Concept & Development : Baudouin d'Aumeries
Co-Development & Prog : Marc-Olivier Méhu
Technical & hardware support : Manuel Goepfert

Contact : metmap@orbifly.com




SOURCES & CREDITS :

   NOAA